Norfolk International Airport Norfolk US
ICAO: KORF
IATA: ORF
Category: Large
Scheduled Services: Yes

Elevation: 26 ft
TransAlt. 18000 ft.

Airport Communications:
APP:28.83
APP:118.9
ATIS:127.15
CLNC DEL:118.5
DEP:125.2
GND:121.9
LEESBURG RDO:116.9
TWR:120.8

KORF Zoom In..

If you have problems with the map follow the link
https://www.worldairports.se/pages/airport.php?
ICAO=KORF

Runways:

(A) RW 05 length 9001 ft width 150 ft
ILS 109.10 / hdg 47

(B) RW 14 length 4875 ft width 150 ft
---- / hdg 137

(C) RW 23 length 9001 ft width 150 ft
ILS 109.10 / hdg 227

(D) RW 32 length 4875 ft width 150 ft
---- / hdg 317

Location; KORF
Day. 19 / Time. 18.51 Zulu
* Altimeter: 30.33
* Temperature: 09° c. 48.2°f.
* Wind from: 030° Speed 12 kn.
Dewpoint: 01° c.
Visibility: 10 Statute Miles.
Clouds: Overcast 8500 ft.

KORF 191851Z 03012KT 10SM OVC085 09/01 A3033 RMK AO2 SLP271 T00890011


Wind From 030°
Speed 12 kn.

 
 
jpsmedia worldairports.se 2020   terms of use